Location: Piotrkow Trybunalski
(51.4000°N, 19.6830°E)
Time: 01:49:08
(UTC+02:00)

STRAND 1 - Pass Details

Date: 31 March 2023
Orbit: 767 x 779 km, 98.4° (Epoch: 06 June)

Event Time Altitude Azimuth Distance (km) Brightness Sun altitude
Rises 05:43:27 0° 144° (SE) 3,245 ? -6.4°
Reaches altitude 10° 05:45:49 10° 139° (SE) 2,320 ? -6.1°
Maximum altitude 05:50:41 47° 67° (ENE) 1,026 ? -5.3°
Drops below altitude 10° 05:55:35 10° 355° (N) 2,328 ? -4.6°
Sets 05:57:58 0° 350° (N) 3,258 ? -4.2°
